Regional Weather Roundup
Issued by NWS Mobile, AL

Home | Current Version | Previous Version | Text Only | Print | Product List | Glossary On
Versions: 1 2 3 4 5 6 7 8 9 10 11 12 13 14 15 16 17 18 19 20 21 22 23 24 25 26 27 28 29 30 31 32 33 34 35 36 37 38 39 40 41 42 43 44 45 46 47 48 49 50
000
ASUS44 KMOB 280510
RWRMOB
REGIONAL WEATHER ROUNDUP
NATIONAL WEATHER SERVICE MOBILE AL
1100 PM CST FRI FEB 27 2015

NOTE: "FAIR" INDICATES FEW OR NO CLOUDS BELOW 12,000 FEET WITH NO
      SIGNIFICANT WEATHER AND/OR OBSTRUCTIONS TO VISIBILITY.

  * THESE STATIONS ARE PART OF THE UNIVERSITY OF SOUTH ALABAMA
    MESONET AND ARE NOT UNDER NWS OR FAA QUALITY CONTROL.

ALZ061>064-280600-
COASTAL ALABAMA

CITY           SKY/WX    TMP DP  RH WIND       PRES   REMARKS
MOBILE REG APT CLEAR     41  27  57 NE12      30.39F
BROOKLEY FIELD PTCLDY    46  32  58 N13       30.41F
USA CAMPUS*      N/A     43  30  61 CALM      30.40F
DOG RIVER*     NOT AVBL


CITY           SKY/WX    TMP DP  RH WIND       PRES   REMARKS
MOUNT VERNON*    N/A     41  28  60 NE3       30.43F
SARALAND*      NOT AVBL
BAY MINETTE*   NOT AVBL
LOXLEY*          N/A     41  30  65 N13       30.39F
ROBERTSDALE*     N/A     41  30  65 N7        30.39F
FAIRHOPE*        N/A     43  30  61 NE12      30.39S
ELBERTA*         N/A     43  30  61 N9        30.38S
FOLEY*         NOT AVBL
GRAND BAY*       N/A     43  30  61 NE8       30.37F
DAUPHIN ISLND* NOT AVBL
BON SCOUR NWR* NOT AVBL
GULF SHORES    PTCLDY    44  31  61 NE7       30.39R

$$

ALZ051>060-280600-
INTERIOR SOUTHWEST AND SOUTH CENTRAL ALABAMA

CITY           SKY/WX    TMP DP  RH WIND       PRES   REMARKS
GREENVILLE     PTCLDY    36  26  67 N6        30.42S
EVERGREEN      PTCLDY    39  25  57 N6        30.43F
CASTLEBERRY*   NOT AVBL
ATMORE*          N/A     39  28  65 N9        30.43F
DIXIE*           N/A     37  32  81 N2        30.39R
ANDALUSIA/OPP  PTCLDY    43  28  55 NE6       30.42R
ANDALUSIA*       N/A     39  30  70 VRB7      30.40R
FLORALA APT    PTCLDY    41  29  62 N5        30.42R
FLORALA*         N/A     41  30  65 N3        30.37R

$$

FLZ001>006-280600-
WESTERN FLORIDA PANHANDLE

CITY           SKY/WX    TMP DP  RH WIND       PRES   REMARKS
PENSACOLA      PTCLDY    44  31  60 N10       30.39S
NAS PENSACOLA  PTCLDY    46  30  53 N15       30.38S
MILTON         PTCLDY    41  29  62 N8        30.40S
WHTNG S FIELD  PTCLDY    44  30  57 N13       30.40S


CITY           SKY/WX    TMP DP  RH WIND       PRES   REMARKS
WALNUT HILL*   NOT AVBL
JAY*             N/A     41  27  56 N8        30.42S
DUKE FIELD     MOCLDY    40  32  71 N8        30.37F
CRESTVIEW      PTCLDY    42  32  67 N5        30.41S
VALPARAISO     MOCLDY    44  32  62 N10       30.37S
DESTIN         PTCLDY    47  34  60 N8G16     30.37S

$$

MSZ076-079-280600-
INTERIOR SOUTHEAST MISSISSIPPI

CITY           SKY/WX    TMP DP  RH WIND       PRES   REMARKS
LEAKESVILLE*     N/A     39  25  56 NE9       30.42S
AGRICOLA*      NOT AVBL

$$

MARINE OBSERVATIONS

STATION/POSITION TIME  TEMP    WIND        PRES    WAVE
                       AIR SEA DIR/SP/G            HT/PER
                 (UTC) (F)     (DEG/KT/KT) (MB)    (FT/S)
PASCAGOULA       0500   45      20/ 10/ 14 1028.6F
PETIT BOIS ISLND 0500   47      30/ 19/ 22 1028.9S
GRAND BAY        0400   44      20/  9     1029.0S
E DAUPHIN ISLAND 0356   49      20/ 23/ 26 1028.7R
USCG MOBILE BAY  0500   45 51   20/  7/ 12 1028.4F
STATE DOCKS      0500   44 47              1029.2F
WEEKS BAY        0400   45                   N/A
FORT MORGAN      0500   47      50/ 24/ 27 1028.1F
12 S ORANGE BCH  0500   52 62   30/ 23/ 27 1027.5R   3/ 4
PENSACOLA BAY    0500   48 54   10/  8/ 15 1029.1R
64 S DAUPHIN ISL 0444   59 69   50/ 19/ 23 1027.5R   5/ 6

$$

SELECTED LOCATIONS ACROSS THE REGION

CITY           SKY/WX    TMP DP  RH WIND       PRES   REMARKS
NEW ORLEANS    PTCLDY    47  33  58 NE12      30.40S
GULFPORT       CLEAR     44  28  53 NE8       30.39F
PASCAGOULA AP  PTCLDY    43  29  57 NE9       30.39F
PASCAGOULA*    NOT AVBL
HATTIESBURG    CLEAR     39  26  59 N5        30.44S
LAUREL         CLEAR     37  21  52 N6        30.44S
MERIDIAN       CLOUDY    36  20  52 NE12G22   30.47S
JACKSON        MOCLDY    38  21  50 NE10      30.46F
MONTGOMERY     CLEAR     38  24  57 N7        30.47R
TROY           CLEAR     38  26  62 N5        30.44R
KINSTON*       NOT AVBL
GENEVA*          N/A     41  32  70 NE3       30.42R
ASHFORD*         N/A     39  30  70 VRB7      30.40R
DOTHAN         PTCLDY    41  31  67 N6        30.43R
PANAMA CITY    CLOUDY    46  39  76 N5        30.35F

$$




USA.gov is the U.S. government's official web portal to all federal, state and local government web resources and services.